Change the Weather History Date:

Sunday, October 7, 2012

  Actual Average Record
Temperature  
Mean Temperature 47 °F 58 °F  
Max Temperature 51 °F 68 °F 86 °F (2007)
Min Temperature 42 °F 47 °F 30 °F (1984)
Degree Days  
Heating Degree Days 18 8  
Month to date heating degree days 26 49  
Since 1 July heating degree days 72 114  
Cooling Degree Days 0 1  
Month to date cooling degree days 13 7  
Year to date cooling degree days 1232 962  
Moisture  
Dew Point 43 °F    
Average Humidity 82    
Maximum Humidity 93    
Minimum Humidity 71    
Precipitation  
Precipitation 0.18 in 0.15 in 2.20 in (1951)
Month to date precipitation 0.51 1.07  
Year to date precipitation 28.20 36.32  
Sea Level Pressure  
Sea Level Pressure 30.06 in    
Wind  
Wind Speed 2 mph (NW)    
Max Wind Speed 7 mph    
Max Gust Speed 9 mph    
Visibility 9 miles    
Events Rain    
T = Trace of Precipitation, MM = Missing Value Source: NWS Daily Summary

Daily Weather History Graph

Daily Weather History Graph

Search for Another Location

Airport or City:

Trip Planner

Search our weather history database for the weather conditions in past years. The results will help you decide how hot, cold, wet, or windy it might be!

Date:

Astronomy

Oct. 07, 2012 Rise Set
Actual Time 7:02 AM EDT 6:31 PM EDT
Civil Twilight 6:34 AM EDT 6:58 PM EDT
Nautical Twilight 6:03 AM EDT 7:29 PM EDT
Astronomical Twilight 5:31 AM EDT 8:01 PM EDT
Moon 11:39 PM EDT (10/7) 1:38 PM EDT (10/7)
Length of Visible Light 12h 23m
Length of Day
11h 28m
Waning Gibbous, 56% of the Moon is Illuminated
Oct 7
Waning Gibbous
Oct 8
Last Quarter
Oct 15
New
Oct 21
First Quarter
Oct 29
Full

Hourly Weather History & Observations

Time (EDT) Temp. Windchill Dew Point Humidity Pressure Visibility Wind Dir Wind Speed Gust Speed Precip Events Conditions
12:53 AM 48.9 °F - 43.0 °F 80% 30.01 in 10.0 mi Calm Calm - N/A   Clear
1:53 AM 48.0 °F - 43.0 °F 83% 30.02 in 10.0 mi Calm Calm - N/A   Clear
2:53 AM 46.0 °F - 42.1 °F 86% 30.01 in 10.0 mi Calm Calm - N/A   Clear
3:53 AM 46.0 °F - 42.1 °F 86% 30.02 in 10.0 mi Calm Calm - N/A   Clear
4:53 AM 45.0 °F 43.5 °F 41.0 °F 86% 30.04 in 10.0 mi NW 3.5 mph - N/A   Clear
5:53 AM 44.1 °F 41.5 °F 39.9 °F 85% 30.05 in 10.0 mi North 4.6 mph - N/A   Clear
6:53 AM 45.0 °F - 41.0 °F 86% 30.06 in 10.0 mi Calm Calm - N/A   Partly Cloudy
7:53 AM 46.9 °F - 43.0 °F 86% 30.07 in 10.0 mi North 3.5 mph - N/A   Overcast
8:53 AM 48.9 °F - 44.1 °F 83% 30.08 in 10.0 mi Calm Calm - N/A   Overcast
9:53 AM 50.0 °F - 43.0 °F 77% 30.10 in 10.0 mi NNW 4.6 mph - N/A   Overcast
10:53 AM 51.1 °F - 42.1 °F 71% 30.11 in 10.0 mi North 3.5 mph - 0.01 in Rain Light Rain
11:53 AM 50.0 °F - 44.1 °F 80% 30.09 in 7.0 mi Calm Calm - 0.04 in Rain Light Rain
12:53 PM 48.9 °F - 44.1 °F 83% 30.09 in 10.0 mi SW 4.6 mph - 0.02 in Rain Light Rain
1:53 PM 50.0 °F - 44.1 °F 80% 30.06 in 10.0 mi Calm Calm - 0.00 in   Overcast
2:53 PM 50.0 °F - 43.0 °F 77% 30.05 in 10.0 mi West 3.5 mph - N/A   Overcast
3:53 PM 51.1 °F - 42.1 °F 71% 30.02 in 10.0 mi Calm Calm - 0.00 in   Overcast
4:53 PM 51.1 °F - 43.0 °F 74% 30.00 in 10.0 mi NNE 3.5 mph - 0.00 in   Overcast
5:53 PM 51.1 °F - 44.1 °F 77% 30.01 in 10.0 mi Calm Calm - N/A   Overcast
6:53 PM 50.0 °F - 45.0 °F 83% 30.05 in 7.0 mi WNW 3.5 mph - 0.01 in Rain Light Rain
7:53 PM 48.9 °F - 46.0 °F 90% 30.07 in 8.0 mi Calm Calm - 0.04 in Rain Light Rain
8:53 PM 48.9 °F - 46.0 °F 90% 30.11 in 7.0 mi NW 4.6 mph - 0.03 in Rain Light Rain
9:53 PM 48.9 °F - 46.0 °F 90% 30.11 in 8.0 mi NW 3.5 mph - 0.03 in Rain Light Rain
10:53 PM 48.0 °F - 46.0 °F 93% 30.11 in 8.0 mi Calm Calm - 0.00 in   Mostly Cloudy
11:53 PM 46.9 °F - 45.0 °F 93% 30.11 in 5.0 mi Calm Calm - N/A   Clear